Regional Weather Roundup
Issued by NWS Charleston, SC

Current Version | Previous Version | Graphics & Text | Print | Product List | Glossary On
Versions: 1 2 3 4 5 6 7 8 9 10 11 12 13 14 15 16 17 18 19 20 21 22 23 24 25 26 27 28 29 30 31 32 33 34 35 36 37 38 39 40 41 42 43 44 45 46 47 48 49 50
000
ASUS42 KCHS 142010
RWRCHS

REGIONAL WEATHER ROUNDUP
NATIONAL WEATHER SERVICE CHARLESTON SC
400 PM EDT SUN SEP 14 2014

NOTE: "FAIR" INDICATES FEW OR NO CLOUDS BELOW 12,000 FEET WITH NO
SIGNIFICANT WEATHER AND/OR OBSTRUCTIONS TO VISIBILITY.

NOT ALL STATIONS ARE QUALITY CONTROLLED BY THE NATIONAL
WEATHER SERVICE. USE DATA WITH CAUTION...ESPECIALLY
DEWPOINT OBSERVATIONS.

SCZ027-030-031-034>040-042>050-142100-
...SOUTH CAROLINA...

CITY           SKY/WX    TMP DP  RH WIND       PRES   REMARKS
N CHARLESTON   CLOUDY    83  73  72 E7        30.14S
WATERFRONT PRK   N/A     82 N/A N/A E10         N/A
FORT JOHNSON   NOT AVBL
MOUNT PLEASANT CLOUDY    81  75  83 CALM      30.14F
JOHNS ISLAND   MOCLDY    84  81  89 E9        30.14S HX  98
PINOPOLIS        N/A     75  72  88 NE9       30.10R
MONCKS CORNER    N/A     77  73  88 NE6       30.16S
SUMMERVILLE    CLOUDY    79  73  83 N9        30.16S
BEAUFORT MCAS  PTSUNNY   86  72  62 NW7       30.12F HX  92
BEAUFORT ARPT  LGT RAIN  81  77  89 SE5       30.12F
HILTON HEAD IS PTSUNNY   84  77  79 NE6       30.14F HX  94
GEORGETOWN     NOT AVBL
WALTERBORO     PTCLDY    84  77  79 N6        30.14S HX  94
ORANGEBURG     CLOUDY    76  68  76 NE5       30.17F
BARNWELL       CLOUDY    73  72  94 NE8       30.17S
AIKEN          CLOUDY    72  72 100 NE3       30.21S
MANNING        CLOUDY    73  73 100 N6        30.17F
KINGSTREE      NOT AVBL
COLUMBIA       CLOUDY    78  64  61 N3        30.17F
SUMTER         CLOUDY    75  65  70 VRB6      30.17F
FLORENCE       CLOUDY    73  64  73 NE6       30.19F
MYRTLE BEACH   CLOUDY    75  66  73 N10       30.17F
N MYRTLE BEACH CLOUDY    75  68  78 N6        30.17F

$$

GAZ063-065-086>088-099>101-113>116-118-119-134-136>141-150-142100-
...GEORGIA...

CITY           SKY/WX    TMP DP  RH WIND       PRES   REMARKS
SAVANNAH ARPT  PTSUNNY   88  72  58 S7        30.11F HX  94
HUNTER AAF     PTSUNNY   87  75  68 SE9       30.10F HX  96
FORT STEWART   MOSUNNY   88  74  63 E7        30.10F HX  96
STATESBORO     NOT AVBL
SYLVANIA       MOCLDY    88  79  75 NE5       30.13F HX 102
CLAXTON        NOT AVBL
THOMSON        CLOUDY    73  72  96 N6        30.23R
AUGUSTA-BUSH   CLOUDY    74  70  87 N7        30.16F
AUGUSTA-DANIEL CLOUDY    74  69  85 N8        30.18S
SWAINSBORO     FAIR      86  77  74 NE3       30.13S HX  97
VIDALIA        CLOUDY    86  75  70 E8        30.10S HX  95
ALMA           MOSUNNY   85  74  69 E3        30.10S HX  92
WAYCROSS       MOSUNNY   91  76  60 E6        30.09F HX 103
JESUP            N/A     91  75  59 CALM      30.11S HX 102
BRUNSWICK      MOSUNNY   88  70  55 E9        30.12R HX  92
SAINT SIMONS   MOSUNNY   87  71  58 SE13      30.11F HX  93

$$

SCZ027-028-034-036>038-045-046-048>050-GAZ119-141-142100-
...LAKE AND SUPPLEMENTAL COASTAL OBSERVATIONS...

STATION/POSITION TIME  TEMP    WIND        PRES    WAVE   SWELL
                       AIR SEA DIR/SP/G            HT/PER HT/PER/DIR
                 (UTC) (F)     (DEG/KT/KT) (MB)    (FT/S) (FT/S/D)
UPR LAKE MARION  NOT AVBL
WINYAH BAY       1900   74      30/  7     1022.0S
LAKE MURRAY      1900   73      50/  2/  3 1021.7F
ACE BASIN NERRS  1900   83     130/  2     1021.0S
FORT PULASKI     2000   82      80/  9/ 12 1020.2F
SAPELO ISLAND    1900   87      70/  9     1021.0S

$$

ANZ835-935-AMZ111-154-330-350-352-354-374-450-454-472-142100-
...C-MAN AND BUOY OBSERVATIONS...

STATION/POSITION TIME  TEMP    WIND        PRES    WAVE   SWELL
                       AIR SEA DIR/SP/G            HT/PER HT/PER/DIR
                 (UTC) (F)     (DEG/KT/KT) (MB)    (FT/S) (FT/S/D)
FOLLY BEACH CMAN 1900   82      70/ 10/ 11 1021.3F
BUOY 41004       2000   79 83   70/  4/  6 1020.4R   2/ 4   2/ 4
BUOY 41008       2000   82 85  100/ 10/ 12 1019.9F   1/ 4   2/160/ 5
5E ST. MARYS GA  1900      85                N/A     2/ 5
FRYING PAN BUOY  NOT AVBL
BUOY 41025       2000   74     360/ 19/ 23 1020.7R   4/ 7   2/ 40/ 8
CAPE LOOKOUT NC  1900   75      30/ 16/ 18 1021.6F
BUOY 41002       1947   78 83  250/ 10/ 12 1021.3F   3/ 5   2/260/ 5
BUOY 41010       2000   84 86  120/  8/ 10 1020.6S   2/ 5   2/180/ 5
BUOY 41012       NOT AVBL
ST AUGUSTINE FL  2000   82     110/ 10/ 11 1020.4F
CAPERS NEARSHORE 1900   80      60/ 14/ 16   N/A
FRIPP NEARSHORE  NOT AVBL


$$



USA.gov is the U.S. government's official web portal to all federal, state and local government web resources and services.